Tracking 35237 objects as of 6-Sep-2026
HD Live streaming from Space Station
objects crossing your sky now

STARLINK-6209

Track STARLINK-6209 now!
10-day predictions
STARLINK-6209 is classified as:


NORAD ID: 56877
Int'l Code: 2023-083B
Launch date: June 12, 2023
Source: United States (US)
Launch site: AIR FORCE EASTERN TEST RANGE (AFETR)
Your satellite tracking list
Your tracking list is empty




NASA's NSSDC Master Catalog

Two Line Element Set (TLE):
1 56877U 23083B   26248.43213265 -.00000001  00000-0  94852-5 0  9992
2 56877  43.0018 149.7666 0000809 210.8747 149.2057 15.27575527179120
Source of the keplerian elements: AFSPC